Regional Weather Roundup
Issued by NWS

Home | Current Version | Previous Version | Text Only | Print | Product List | Glossary Off
Versions: 1 2 3 4 5 6 7 8 9 10 11 12 13 14 15 16 17 18 19 20 21 22 23 24 25 26 27 28 29 30 31 32 33 34 35 36 37 38 39 40 41 42 43 44 45 46 47 48 49 50

162
ASUS45 KBOI 121210
RWRID

IDAHO REGIONAL WEATHER ROUNDUP
NATIONAL WEATHER SERVICE BOISE ID
500 AM MST TUE DEC 12 2017

NOTE: "FAIR" INDICATES FEW OR NO CLOUDS BELOW 12000 FEET
WITH NO SIGNIFICANT WEATHER AND/OR OBSTRUCTIONS TO VISIBILITY

IDZ012-014-121300-
SOUTHWEST IDAHO


CITY           SKY/WX    TMP DP  RH WIND       PRES   REMARKS
BOISE          CLOUDY    24  21  88 CALM      30.67F
CALDWELL       NOT AVBL
MOUNTAIN HOME  CLOUDY    21  21 100 CALM      30.67S FOG
$$

IDZ016-017-121300-
SOUTHCENTRAL IDAHO


CITY           SKY/WX    TMP DP  RH WIND       PRES   REMARKS
BURLEY         FOG       20  16  84 S5        30.56F VSB 1/4 WCI  13
JEROME         HAZE      23  18  81 CALM      30.59F VSB 1/4
TWIN FALLS     FOG       22  19  89 CALM      30.57F VSB 1/4
$$

IDZ019>023-121300-
SOUTHEAST IDAHO


CITY           SKY/WX    TMP DP  RH WIND       PRES   REMARKS
IDAHO FALLS    CLOUDY    10   7  87 N3        30.57S
POCATELLO      CLOUDY    12   9  87 CALM      30.58R FOG
REXBURG        CLOUDY    10   7  87 CALM      30.56S
$$

IDZ006-010-011-018-031-032-121300-
CENTRAL IDAHO MOUNTAINS


CITY           SKY/WX    TMP DP  RH WIND       PRES   REMARKS
MCCALL         CLEAR      6   2  83 CALM      30.52S
HAILEY         CLEAR     23  14  68 NW9       30.55S WCI  13
STANLEY          N/A     -2  -6  83 CALM      30.60F
SALMON         CLOUDY    14  11  87 CALM      30.70S FOG
CHALLIS        CLEAR      8   3  80 CALM      30.61S
$$

IDZ002-004-006-007-026-121300-
NORTHERN IDAHO


CITY           SKY/WX    TMP DP  RH WIND       PRES   REMARKS
LEWISTON       CLOUDY    28  26  92 E9        30.61F WCI  19
LOWELL           N/A     25  24  96 CALM      30.67S
COEUR D`ALENE  CLOUDY    26  25  96 NW3       30.57F
MULLAN PASS    CLEAR     32  32 100 SW7       30.41F WCI  26
$$




USA.gov is the U.S. government's official web portal to all federal, state and local government web resources and services.